• En España
  • Lista de países
  • Para 7 días
  • Temperatura del agua
  • Mapa Satelital
  • El tiempo en el mapa
  • Informadores
  • user-avatar
    Iniciar sesión

    Tiempo cada hora Alicante

    Hoy, 24 Septiembre, Lunes

    Tiempo Temperatura Precipitaciones Viento Presión Humedad
    00:00 +28°C° 0 mm 1 mps 764 mmHg 59%
    01:00 +28°C° 0 mm 1 mps 764 mmHg 58%
    02:00 +28°C° 0 mm 1 mps 764 mmHg 57%
    03:00 +28°C° 0 mm 1 mps 764 mmHg 56%
    04:00 +28°C° 0 mm 1 mps 764 mmHg 56%
    05:00 +27°C° 0 mm 1 mps 764 mmHg 55%
    06:00 +27°C° 0 mm 1 mps 764 mmHg 54%
    07:00 +29°C° 0 mm 1 mps 764 mmHg 50%
    08:00 +30°C° 0 mm 1 mps 765 mmHg 45%
    09:00 +32°C° 0 mm 2 mps 765 mmHg 40%
    10:00 +34°C° 0 mm 2 mps 765 mmHg 39%
    11:00 +35°C° 0 mm 3 mps 765 mmHg 37%
    12:00 +36°C° 0 mm 4 mps 765 mmHg 36%
    13:00 +35°C° 0 mm 4 mps 764 mmHg 37%
    14:00 +35°C° 0 mm 4 mps 764 mmHg 38%
    15:00 +35°C° 0 mm 5 mps 764 mmHg 40%
    16:00 +34°C° 0 mm 4 mps 764 mmHg 45%
    17:00 +32°C° 0 mm 4 mps 764 mmHg 51%
    18:00 +30°C° 0 mm 4 mps 764 mmHg 57%
    19:00 +29°C° 0 mm 4 mps 764 mmHg 62%
    20:00 +29°C° 0 mm 3 mps 764 mmHg 66%
    21:00 +28°C° 0 mm 3 mps 765 mmHg 70%
    22:00 +27°C° 0 mm 2 mps 765 mmHg 73%
    23:00 +27°C° 0 mm 2 mps 765 mmHg 76%

    Mañana, 25 Septiembre, Martes

    Tiempo Temperatura Precipitaciones Viento Presión Humedad
    00:00 +27°C° 0 mm 2 mps 765 mmHg 78%
    01:00 +26°C° 0 mm 2 mps 765 mmHg 80%
    02:00 +26°C° 0 mm 3 mps 765 mmHg 82%
    03:00 +26°C° 0 mm 3 mps 765 mmHg 84%
    04:00 +26°C° 0.1 mm 3 mps 765 mmHg 85%
    05:00 +25°C° 0.1 mm 4 mps 765 mmHg 87%
    06:00 +25°C° 0.1 mm 4 mps 765 mmHg 89%
    07:00 +26°C° 0.1 mm 4 mps 765 mmHg 84%
    08:00 +27°C° 0.1 mm 5 mps 766 mmHg 79%
    09:00 +28°C° 0.1 mm 5 mps 766 mmHg 74%
    10:00 +28°C° 0.1 mm 5 mps 766 mmHg 73%
    11:00 +28°C° 0.1 mm 6 mps 766 mmHg 72%
    12:00 +29°C° 0.1 mm 6 mps 766 mmHg 70%
    13:00 +28°C° 0.1 mm 6 mps 766 mmHg 71%
    14:00 +28°C° 0.1 mm 6 mps 766 mmHg 72%
    15:00 +27°C° 0.1 mm 6 mps 766 mmHg 73%
    16:00 +27°C° 0 mm 6 mps 766 mmHg 73%
    17:00 +26°C° 0 mm 6 mps 766 mmHg 73%
    18:00 +26°C° 0 mm 6 mps 766 mmHg 73%
    19:00 +26°C° 0 mm 6 mps 767 mmHg 74%
    20:00 +24°C° 0 mm 6 mps 767 mmHg 76%
    21:00 +25°C° 0 mm 5 mps 768 mmHg 78%
    22:00 +25°C° 0.1 mm 5 mps 767 mmHg 79%
    23:00 +25°C° 0.1 mm 5 mps 767 mmHg 79%

    Pasado mañana, 26 Septiembre, Miércoles

    Tiempo Temperatura Precipitaciones Viento Presión Humedad
    00:00 +23°C° 0.1 mm 5 mps 767 mmHg 80%
    01:00 +23°C° 0 mm 5 mps 767 mmHg 81%
    02:00 +23°C° 0 mm 6 mps 767 mmHg 81%
    03:00 +23°C° 0 mm 6 mps 767 mmHg 81%
    04:00 +23°C° 0 mm 6 mps 767 mmHg 81%
    05:00 +22°C° 0 mm 5 mps 767 mmHg 81%
    06:00 +22°C° 0 mm 5 mps 767 mmHg 81%
    07:00 +23°C° 0.1 mm 6 mps 767 mmHg 76%
    08:00 +24°C° 0.1 mm 6 mps 768 mmHg 71%
    09:00 +26°C° 0.1 mm 6 mps 768 mmHg 66%
    10:00 +27°C° 0.2 mm 6 mps 768 mmHg 63%
    11:00 +28°C° 0.2 mm 7 mps 768 mmHg 59%
    12:00 +29°C° 0.2 mm 7 mps 768 mmHg 56%
    13:00 +29°C° 0.3 mm 7 mps 768 mmHg 57%
    14:00 +29°C° 0.3 mm 8 mps 767 mmHg 59%
    15:00 +29°C° 0.3 mm 8 mps 767 mmHg 60%
    16:00 +28°C° 0.5 mm 8 mps 767 mmHg 64%
    17:00 +27°C° 0.5 mm 8 mps 767 mmHg 68%
    18:00 +26°C° 0.5 mm 7 mps 768 mmHg 72%
    19:00 +26°C° 1.2 mm 7 mps 768 mmHg 74%
    20:00 +26°C° 1.2 mm 7 mps 768 mmHg 76%
    21:00 +24°C° 1.2 mm 7 mps 769 mmHg 78%
    22:00 +24°C° 1.1 mm 7 mps 769 mmHg 79%
    23:00 +24°C° 1.1 mm 6 mps 768 mmHg 80%

    27 Septiembre, Jueves

    Tiempo Temperatura Precipitaciones Viento Presión Humedad
    00:00 +24°C° 1.1 mm 6 mps 768 mmHg 81%
    01:00 +24°C° 1.2 mm 7 mps 768 mmHg 82%
    02:00 +24°C° 1.2 mm 7 mps 768 mmHg 82%
    03:00 +24°C° 1.2 mm 7 mps 768 mmHg 83%
    04:00 +24°C° 0.6 mm 7 mps 768 mmHg 83%
    05:00 +24°C° 0.6 mm 7 mps 768 mmHg 84%
    06:00 +24°C° 0.6 mm 7 mps 768 mmHg 84%
    07:00 +24°C° 0.2 mm 7 mps 768 mmHg 80%
    08:00 +26°C° 0.2 mm 7 mps 768 mmHg 76%
    09:00 +27°C° 0.2 mm 7 mps 769 mmHg 72%
    10:00 +27°C° 0.1 mm 7 mps 769 mmHg 70%
    11:00 +28°C° 0.1 mm 7 mps 769 mmHg 68%
    12:00 +28°C° 0.1 mm 7 mps 768 mmHg 66%
    13:00 +28°C° 0.1 mm 7 mps 768 mmHg 66%
    14:00 +28°C° 0.1 mm 7 mps 768 mmHg 66%
    15:00 +28°C° 0.1 mm 7 mps 767 mmHg 67%
    16:00 +27°C° 0 mm 7 mps 767 mmHg 70%
    17:00 +27°C° 0 mm 6 mps 767 mmHg 72%
    18:00 +26°C° 0 mm 6 mps 767 mmHg 75%
    19:00 +26°C° 0 mm 6 mps 768 mmHg 78%
    20:00 +25°C° 0 mm 5 mps 768 mmHg 81%
    21:00 +25°C° 0 mm 5 mps 768 mmHg 83%
    22:00 +25°C° 0 mm 4 mps 768 mmHg 84%
    23:00 +25°C° 0 mm 4 mps 767 mmHg 85%

    28 Septiembre, Viernes

    Tiempo Temperatura Precipitaciones Viento Presión Humedad
    00:00 +23°C° 0 mm 4 mps 767 mmHg 86%
    01:00 +23°C° 0 mm 4 mps 766 mmHg 86%
    02:00 +24°C° 0 mm 3 mps 766 mmHg 87%
    03:00 +24°C° 0 mm 3 mps 766 mmHg 88%
    04:00 +22°C° 0 mm 3 mps 765 mmHg 88%
    05:00 +22°C° 0 mm 3 mps 765 mmHg 89%
    06:00 +22°C° 0 mm 3 mps 765 mmHg 89%
    07:00 +24°C° 0 mm 3 mps 765 mmHg 82%
    08:00 +25°C° 0 mm 3 mps 766 mmHg 76%
    09:00 +26°C° 0 mm 2 mps 766 mmHg 69%
    10:00 +27°C° 0 mm 2 mps 765 mmHg 64%
    11:00 +28°C° 0 mm 2 mps 765 mmHg 59%
    12:00 +29°C° 0 mm 2 mps 765 mmHg 54%
    13:00 +30°C° 0 mm 3 mps 764 mmHg 53%
    14:00 +30°C° 0 mm 3 mps 763 mmHg 53%
    15:00 +30°C° 0 mm 3 mps 763 mmHg 52%
    16:00 +29°C° 0 mm 3 mps 763 mmHg 57%
    17:00 +29°C° 0 mm 3 mps 763 mmHg 62%
    18:00 +28°C° 0 mm 3 mps 762 mmHg 66%
    19:00 +27°C° 0 mm 2 mps 763 mmHg 71%
    20:00 +26°C° 0 mm 2 mps 763 mmHg 75%
    21:00 +26°C° 0 mm 2 mps 763 mmHg 79%
    22:00 +26°C° 0 mm 1 mps 763 mmHg 81%
    23:00 +25°C° 0 mm 1 mps 762 mmHg 83%

    29 Septiembre, Sábado

    Tiempo Temperatura Precipitaciones Viento Presión Humedad
    00:00 +25°C° 0 mm 1 mps 762 mmHg 85%
    01:00 +25°C° 0 mm 1 mps 762 mmHg 85%
    02:00 +24°C° 0 mm 1 mps 761 mmHg 85%
    03:00 +24°C° 0 mm 1 mps 761 mmHg 86%
    04:00 +22°C° 0 mm 0 mps 761 mmHg 86%
    05:00 +21°C° 0 mm 0 mps 761 mmHg 86%
    06:00 +21°C° 0 mm 0 mps 761 mmHg 86%
    07:00 +25°C° 0 mm 1 mps 761 mmHg 78%
    08:00 +26°C° 0 mm 1 mps 762 mmHg 70%
    09:00 +28°C° 0 mm 1 mps 762 mmHg 62%
    10:00 +29°C° 0 mm 1 mps 761 mmHg 57%
    11:00 +30°C° 0 mm 2 mps 761 mmHg 52%
    12:00 +31°C° 0 mm 2 mps 761 mmHg 47%
    13:00 +31°C° 0 mm 3 mps 761 mmHg 47%
    14:00 +31°C° 0 mm 3 mps 760 mmHg 47%
    15:00 +32°C° 0 mm 4 mps 760 mmHg 47%
    16:00 +30°C° 0 mm 4 mps 760 mmHg 52%
    17:00 +29°C° 0 mm 3 mps 760 mmHg 58%
    18:00 +28°C° 0 mm 3 mps 760 mmHg 64%
    19:00 +27°C° 0 mm 3 mps 761 mmHg 67%
    20:00 +26°C° 0 mm 2 mps 761 mmHg 70%
    21:00 +26°C° 0 mm 2 mps 761 mmHg 73%
    22:00 +25°C° 0 mm 2 mps 761 mmHg 74%
    23:00 +25°C° 0 mm 2 mps 761 mmHg 75%
    Mostrar más